Glasgow, United Kingdom

5:07 PM BST on July 23, 2016 (GMT +0100)
Glasgow

Weather History for EGPF - June, 2013

Change the Weather History Date:

Friday, June 21, 2013

  Actual Average Record
Temperature  
Mean Temperature 60 °F -  
Max Temperature 64 °F 64 °F 69 °F (2007)
Min Temperature 55 °F 48 °F 41 °F (2008)
Degree Days  
Heating Degree Days 6    
Growing Degree Days 10 (Base 50)    
Moisture  
Dew Point 51 °F    
Average Humidity 76    
Maximum Humidity 94    
Minimum Humidity 52    
Precipitation  
Precipitation 0.00 in - - ()
Sea Level Pressure  
Sea Level Pressure 29.74 in    
Wind  
Wind Speed 5 mph ()    
Max Wind Speed 13 mph    
Max Gust Speed -    
Visibility 6.2 miles    
Events Rain    
Averages and records for this station are not official NWS values.
T = Trace of Precipitation, MM = Missing Value Source: Averaged Metar Reports

Daily Weather History Graph

Daily Weather History Graph

Search for Another Location

Airport or City:

Trip Planner

Search our weather history database for the weather conditions in past years. The results will help you decide how hot, cold, wet, or windy it might be!

Date:

Astronomy

Jun. 21, 2013 Rise Set
Actual Time 4:31 AM BST 10:07 PM BST
Civil Twilight 3:29 AM BST 11:09 PM BST
Nautical Twilight 1:51 AM BST 12:47 AM BST
Astronomical Twilight Sun does not set Sun does not set
Moon 7:45 PM BST (6/21) 2:57 AM BST (6/21)
Length of Visible Light 19h 39m
Length of Day
17h 35m
Waxing Gibbous, 94% of the Moon is Illuminated
Jun 21
Waxing Gibbous
Jun 23
Full
Jun 30
Last Quarter
Jul 8
New
Jul 16
First Quarter

Hourly Weather History & Observations

Time (BST) Temp. Dew Point Humidity Pressure Visibility Wind Dir Wind Speed Gust Speed Precip Events Conditions
12:20 AM 57.2 °F 51.8 °F 82% 29.80 in 6.2 mi Variable 3.5 mph - N/A   Mostly Cloudy
12:50 AM 57.2 °F 51.8 °F 82% 29.80 in 6.2 mi WSW 2.3 mph - N/A   Scattered Clouds
1:20 AM 57.2 °F 51.8 °F 82% 29.80 in 6.2 mi WNW 3.5 mph - N/A   Scattered Clouds
1:50 AM 57.2 °F 51.8 °F 82% 29.80 in 6.2 mi Calm Calm - N/A   Scattered Clouds
2:20 AM 57.2 °F 51.8 °F 82% 29.80 in 6.2 mi West 2.3 mph - N/A   Scattered Clouds
2:50 AM 57.2 °F 51.8 °F 82% 29.77 in 6.2 mi Calm Calm - N/A   Scattered Clouds
3:20 AM 57.2 °F 51.8 °F 82% 29.77 in 6.2 mi SW 4.6 mph - N/A   Mostly Cloudy
3:50 AM 55.4 °F 53.6 °F 94% 29.77 in 6.2 mi West 4.6 mph - N/A   Mostly Cloudy
4:20 AM 57.2 °F 51.8 °F 82% 29.77 in 6.2 mi West 3.5 mph - N/A   Partly Cloudy
4:50 AM 55.4 °F 51.8 °F 88% 29.77 in 6.2 mi West 3.5 mph - N/A   Mostly Cloudy
5:20 AM 55.4 °F 51.8 °F 88% 29.77 in 6.2 mi West 3.5 mph - N/A   Partly Cloudy
5:50 AM 55.4 °F 53.6 °F 94% 29.77 in 6.2 mi WNW 3.5 mph - N/A   Partly Cloudy
6:20 AM 57.2 °F 53.6 °F 88% 29.77 in - West 2.3 mph - N/A   Clear
6:50 AM 57.2 °F 53.6 °F 88% 29.77 in - NW 2.3 mph - N/A   Clear
7:20 AM 59.0 °F 51.8 °F 77% 29.77 in 6.2 mi WSW 2.3 mph - N/A   Partly Cloudy
7:50 AM 59.0 °F 53.6 °F 82% 29.77 in 6.2 mi West 3.5 mph - N/A   Scattered Clouds
8:20 AM 57.2 °F 53.6 °F 88% 29.77 in 6.2 mi West 3.5 mph - N/A   Mostly Cloudy
8:50 AM 57.2 °F 53.6 °F 88% 29.77 in 6.2 mi WNW 5.8 mph - N/A   Mostly Cloudy
9:20 AM 59.0 °F 55.4 °F 88% 29.77 in 6.2 mi West 5.8 mph - N/A   Mostly Cloudy
9:50 AM 57.2 °F 55.4 °F 94% 29.77 in 6.2 mi West 6.9 mph - N/A   Mostly Cloudy
10:20 AM 59.0 °F 55.4 °F 88% 29.77 in 6.2 mi West 8.1 mph - N/A   Mostly Cloudy
10:50 AM 59.0 °F 55.4 °F 88% 29.77 in 6.2 mi WSW 6.9 mph - N/A   Mostly Cloudy
11:20 AM 59.0 °F 55.4 °F 88% 29.77 in 6.2 mi West 5.8 mph - N/A   Mostly Cloudy
11:50 AM 59.0 °F 53.6 °F 82% 29.77 in 6.2 mi WNW 5.8 mph - N/A   Mostly Cloudy
12:20 PM 60.8 °F 53.6 °F 77% 29.77 in 6.2 mi West 8.1 mph - N/A   Mostly Cloudy
12:50 PM 62.6 °F 53.6 °F 72% 29.77 in 6.2 mi West 8.1 mph - N/A   Mostly Cloudy
1:20 PM 62.6 °F 53.6 °F 72% 29.74 in 6.2 mi NW 8.1 mph - N/A   Mostly Cloudy
1:50 PM 60.8 °F 51.8 °F 72% 29.74 in 6.2 mi NW 8.1 mph - N/A   Mostly Cloudy
2:20 PM 62.6 °F 51.8 °F 68% 29.74 in 6.2 mi West 9.2 mph - N/A   Mostly Cloudy
2:50 PM 62.6 °F 50.0 °F 63% 29.74 in 6.2 mi West 10.4 mph - N/A   Mostly Cloudy
3:20 PM 64.4 °F 50.0 °F 59% 29.74 in 6.2 mi WSW 9.2 mph - N/A   Mostly Cloudy
3:50 PM 64.4 °F 50.0 °F 59% 29.74 in 6.2 mi WSW 10.4 mph - N/A   Mostly Cloudy
4:20 PM 62.6 °F 48.2 °F 59% 29.74 in 6.2 mi WSW 10.4 mph - N/A   Mostly Cloudy
4:50 PM 64.4 °F 48.2 °F 56% 29.74 in 6.2 mi WSW 12.7 mph - N/A   Scattered Clouds
5:20 PM 64.4 °F 48.2 °F 56% 29.74 in 6.2 mi WSW 9.2 mph - N/A   Scattered Clouds
5:50 PM 62.6 °F 46.4 °F 55% 29.71 in 6.2 mi WSW 10.4 mph - N/A   Mostly Cloudy
6:20 PM 64.4 °F 46.4 °F 52% 29.71 in 6.2 mi SW 8.1 mph - N/A   Partly Cloudy
6:50 PM 60.8 °F 48.2 °F 63% 29.68 in 6.2 mi SW 9.2 mph - N/A   Partly Cloudy
7:20 PM 60.8 °F 46.4 °F 59% 29.68 in 6.2 mi SW 9.2 mph - N/A   Partly Cloudy
7:50 PM 59.0 °F 46.4 °F 63% 29.68 in - SW 10.4 mph - N/A   Clear
8:20 PM 59.0 °F 46.4 °F 63% 29.68 in 6.2 mi WSW 6.9 mph - N/A   Scattered Clouds
8:50 PM 57.2 °F 48.2 °F 72% 29.68 in 6.2 mi WSW 6.9 mph - N/A   Scattered Clouds
9:20 PM 57.2 °F 48.2 °F 72% 29.65 in 6.2 mi SW 6.9 mph - N/A   Scattered Clouds
9:50 PM 57.2 °F 48.2 °F 72% 29.65 in 6.2 mi SW 6.9 mph - N/A   Mostly Cloudy
10:20 PM 55.4 °F 48.2 °F 77% 29.65 in 6.2 mi Variable 2.3 mph - N/A   Mostly Cloudy
10:50 PM 57.2 °F 50.0 °F 77% 29.62 in 6.2 mi South 8.1 mph - N/A Rain Light Rain
11:20 PM 57.2 °F 50.0 °F 77% 29.59 in 6.2 mi SSE 6.9 mph - N/A Rain Light Rain
11:50 PM 55.4 °F 50.0 °F 82% 29.59 in 6.2 mi SE 5.8 mph - N/A Rain Light Rain